Regional Weather Roundup
Issued by NWS

Home | Current Version | Previous Version | Text Only | Print | Product List | Glossary Off
Versions: 1 2 3 4 5 6 7 8 9 10 11 12 13 14 15 16 17 18 19 20 21 22 23 24 25 26 27 28 29 30 31 32 33 34 35 36 37 38 39 40 41 42 43 44 45 46 47 48 49 50

000
ASUS43 KMPX 251710
RWRMN
WEATHER ROUNDUP FOR MINNESOTA
NATIONAL WEATHER SERVICE TWIN CITIES/CHANHASSEN MN
1200 PM CDT TUE JUL 25 2017


NOTE: "FAIR" INDICATES FEW OR NO CLOUDS BELOW 12,000 FEET WITH NO
SIGNIFICANT WEATHER AND/OR OBSTRUCTIONS TO VISIBILITY. N/A MEANS
CURRENT SKY AND/OR WEATHER CONDITIONS ARE NOT AVAILABLE.

MNZ060>063-068>070-251800-
   Twin Cities Metro

CITY           SKY/WX    TMP DP  RH WIND       PRES   REMARKS
TWIN CITIES    CLOUDY    79  64  60 S20G30    29.99S
ST PAUL        PTSUNNY   80  67  64 S18G28    29.98F
CRYSTAL        SUNNY     80  62  54 S25G33    29.96F
BLAINE         MOSUNNY   81  64  57 S18G28    29.97F
LAKEVILLE      CLOUDY    72  64  78 S13G21    30.00R
EDEN PRAIRIE   CLOUDY    78  65  63 S23G29    29.98S
SOUTH ST PAUL  CLOUDY    78  64  62 S14G28    29.99S
LAKE ELMO      FAIR      77  68  73 S14G21    30.01F
$$
MNZ001>005-007-008-013>017-022>024-027-028-251800-
   Northwest Minnesota

CITY           SKY/WX    TMP DP  RH WIND       PRES   REMARKS
BEMIDJI        CLOUDY    73  65  77 S10       29.91S
HALLOCK        PTSUNNY   75  70  83 SW10      29.86S
ROSEAU         CLOUDY    72  66  83 S13       29.85F
WARROAD        CLOUDY    73  70  88 SW9G17    29.83F
THIEF RVR FALL CLOUDY    75  68  78 S15       29.89S
CROOKSTON      CLOUDY    73  68  83 SW12      29.89R
FOSSTON        PTSUNNY   72  64  78 S12       29.91S
DETROIT LAKES  CLOUDY    73  66  78 SW3       29.94R
MOORHEAD       PTSUNNY   75  66  73 E8        29.85F
PARK RAPIDS    CLOUDY    72  65  78 S8        29.94R
MAHNOMEN       CLOUDY    74  67  80 SW7       29.92R
$$
MNZ006-009>011-018-025>026-251800-
   North Central Minnesota

CITY           SKY/WX    TMP DP  RH WIND       PRES   REMARKS
BAUDETTE       CLOUDY    74  67  78 S9        29.86F
FLAG ISLAND    CLOUDY    73  66  78 S7        29.83F
INTL FALLS     PTSUNNY   75  65  70 SW7       29.92R
WASKISH        CLOUDY    75  66  73 SW6       29.90R
BIG FORK       MOSUNNY   77  66  69 S10       29.92F
LONGVILLE      CLOUDY    70  64  83 SE9       29.95F
GRAND RAPIDS   CLOUDY    71  65  81 S10       29.97F
CRANE LAKE     CLOUDY    73  64  73 S10G17    29.96R
ORR            MOSUNNY   75  61  60 S13       29.93R
COOK           PTSUNNY   73  63  68 SE10      29.97R
WALKER         CLOUDY    70  64  82 S7        29.94R
$$
MNZ012-019>021-037-251800-
   Northeast Minnesota

CITY           SKY/WX    TMP DP  RH WIND       PRES   REMARKS
DULUTH         PTSUNNY   71  64  78 SE10      30.01F
ELY            CLOUDY    75  61  60 S12G17    29.97F
HIBBING        PTSUNNY   72  65  78 SE13      29.97S
EVELETH        MOSUNNY   77  62  59 S13       29.99F
DULUTH HARBOR  MOSUNNY   66  63  88 NE12      30.00F
TWO HARBORS    CLOUDY    73  64  73 SE7       30.00F
SILVER BAY     CLOUDY    73  63  68 S14       30.01F
GRAND MARAIS     N/A     64  57  78 VRB3      30.04F
G MARAIS ARPRT MOSUNNY   68  57  68 S8        30.07S
$$
MNZ029>031-032-039>041-046>048-054>057-064-251800-
   West Central Minnesota

CITY           SKY/WX    TMP DP  RH WIND       PRES   REMARKS
FERGUS FALLS   CLOUDY    73  66  78 SE3       29.90R
WHEATON        CLOUDY    75  66  73 CALM      29.92R
MORRIS         CLOUDY    79  70  73 SE5       29.90S
ALEXANDRIA     CLOUDY    74  68  81 SE10      29.94S
ELBOW LAKE     CLOUDY    75  69  80 SE3       29.92S HAZE
WADENA         CLOUDY    72  64  78 S10       29.93S
GLENWOOD       MOSUNNY   75  68  78 S7        29.94R
APPLETON       MOSUNNY   81  70  69 SE3       29.89R
BENSON         CLOUDY    81  70  69 S7        29.92S
ORTONVILLE     MOSUNNY   81  70  69 MISG      29.90R
MADISON        MOSUNNY   86  70  58 CALM      29.88S HX  90
WILLMAR        FAIR      79  70  73 SE12G17   29.94S
$$
MNZ033>034-036-042>043-049>051-058-059-251800-
   Central Minnesota

CITY           SKY/WX    TMP DP  RH WIND       PRES   REMARKS
ST CLOUD       CLOUDY    74  67  78 S13       29.96F
SAUK CENTRE    CLOUDY    73  67  82 S8        29.95R
PAYNESVILLE    PTSUNNY   78  67  70 S12G22    29.95S
AITKIN         CLOUDY    70  64  83 S13       29.95F
PINE RIVER     CLOUDY    70  64  83 S10       29.99R
BRAINERD       CLOUDY    70  65  84 S9        29.97S
STAPLES        CLOUDY    70  63  78 SE8       29.94F
LONG PRAIRIE   CLOUDY    70  64  83 SE9       29.96R
LITTLE FALLS   CLOUDY    70  63  78 SE8       29.95S
LITCHFIELD     CLOUDY    81  70  69 SE8       29.95F
BUFFALO        PTSUNNY   76  64  65 SE14G22   29.99S
MAPLE LAKE     CLOUDY    76  67  73 S10G20    29.98R
HUTCHINSON     PTSUNNY   78  70  75 SE13G20   29.97S
$$
MNZ037-044-045-052-053-251800-
   East Central Minnesota

CITY           SKY/WX    TMP DP  RH WIND       PRES   REMARKS
PRINCETON      MOSUNNY   81  66  61 S16       29.96F
MORA           CLOUDY    70  63  78 S7        30.01S
CAMBRIDGE      PTSUNNY   79  64  61 SE14G20   29.97S
RUSH CITY      CLOUDY    71  64  80 S9        30.00S
MOOSE LAKE     CLOUDY    73  63  68 CALM      29.99S
HINCKLEY       CLOUDY    72  64  78 S6        30.01R
CLOQUET        PTSUNNY   73  63  68 SE7       30.00F
MCGREGOR       CLOUDY    72  63  73 S12       29.98F
$$
MNZ071>073-080-081-089-090-097-098-251800-
   Southwest Minnesota

CITY           SKY/WX    TMP DP  RH WIND       PRES   REMARKS
MONTEVIDEO     MOSUNNY   86  72  62 CALM      29.90R HX  92
GRANITE FALLS  CLOUDY    84  72  66 S8        29.91S HX  90
CANBY          MOSUNNY   88  69  51 CALM      29.90R HX  92
MARSHALL       PTSUNNY   85  72  65 SW13      29.89F HX  91
REDWOOD FALLS  MOSUNNY   81  69  67 S14       29.92S
OLIVIA         MOSUNNY   79  70  73 SE13      29.92F
PIPESTONE      CLOUDY    84  72  65 SW14G20   29.93S
WINDOM         MOSUNNY   82  68  61 S15G21    29.95R
WORTHINGTON    MOSUNNY   82  71  69 S16G23    29.96R
JACKSON        CLOUDY    81  68  65 S16G24    29.98S
TRACY          CLOUDY    82  72  71 S20G25    29.91F
SLAYTON        MOSUNNY   82  70  66 S12G20    29.95R HAZE
$$
MNZ065>067-074>077-082>085-091>093-251800-
   South Central Minnesota

CITY           SKY/WX    TMP DP  RH WIND       PRES   REMARKS
MANKATO        CLOUDY    76  68  76 SE20G25   29.98S
NEW ULM        MOSUNNY   79  68  69 S17       29.95F
ST JAMES       MOSUNNY   81  70  69 SE14G21   29.97S
FAIRMONT       SUNNY     81  70  69 S22G28    29.98F
GLENCOE        CLOUDY    77  70  79 SE12G20   29.97S
FARIBAULT      MOSUNNY   72  64  78 SE20      30.01S
OWATONNA       CLOUDY    73  66  78 S18G36    30.01F
WASECA         CLOUDY    72  64  78 SE17G25   30.02F
ALBERT LEA     PTSUNNY   73  66  78 S17G28    30.05F
$$
MNZ078>079-086>088-094>096-251800-
   Southeast Minnesota

CITY           SKY/WX    TMP DP  RH WIND       PRES   REMARKS
ROCHESTER      CLOUDY    71  66  84 S17G28    30.07F
RED WING       PTSUNNY   75  64  69 SE13G18   29.99F
STANTON        CLOUDY    73  65  76 S15G23    29.98S
DODGE CENTER   MOSUNNY   73  64  73 S22G30    30.04F
WINONA         LGT RAIN  66  63  88 NE3       30.06S
AUSTIN         PTSUNNY   72  64  78 SE14G23   30.08F
PRESTON        PTSUNNY   66  63  90 S10       30.12F
$$
ABBREVIATIONS USED IN REMARKS
   TC - TEMPERATURES IN CELSIUS
  WCI - WIND CHILL INDEX
   HX - HEAT INDEX
  VSB - VISIBILITY
$$




USA.gov is the U.S. government's official web portal to all federal, state and local government web resources and services.